090  
ASUS43 KIWX 282210  
RWRIWX  
 
KIWX WEATHER ROUNDUP  
NATIONAL WEATHER SERVICE NORTHERN INDIANA  
500 PM EST SUN FEB 28 2021  
 
NOTE: "FAIR" INDICATES FEW OR NO CLOUDS BELOW 12,000 FEET WITH NO  
SIGNIFICANT WEATHER AND/OR S TO VISIBILITY
.  
 
* THESE STATIONS ARE NOT UNDER NWS QUALITY CONTROL. THEY ALSO MAY NOT  
REPORT WEATHER SUCH AS PRECIPITATION OR FOG.
 
 
INZ001>027-282300-  
NORTHERN INDIANA  
 
CITY SKY/WX TMP DP RH WIND PRES REMARKS
 
GARY* PTSUNNY 46 41 81 W18G30 29.75R FOG  
VALPARAISO PTSUNNY 47 45 93 W14 29.75R  
MICHIGAN CITY* CLOUDY 48 45 87 SW10 29.73R  
LAPORTE* CLOUDY 46 45 99 W13G22 29.74R FOG  
KNOX* CLOUDY 50 48 93 W18G25 29.74R  
SOUTH BEND CLOUDY 51 48 89 W23G30 29.73R FOG  
ELKHART* CLOUDY 54 54 100 W18G25 29.70R  
GOSHEN LGT RAIN 55 52 89 W16 29.70R  
MONTICELLO* CLOUDY 56 52 88 W13G22 29.74R  
LOGANSPORT* CLOUDY 55 54 94 W15 29.74S  
ROCHESTER* CLOUDY 59 54 82 W13 29.73R  
PLYMOUTH* CLOUDY 54 50 87 W17G26 29.72R  
WARSAW* CLOUDY 57 52 82 W18G25 29.70S  
AUBURN* PTSUNNY 61 54 77 SW8 29.69S  
FORT WAYNE LGT RAIN 59 53 80 SW14 29.70S  
HUNTINGTON* CLOUDY 58 55 87 SW12G18 29.71S  
PERU/GRISSOM CLOUDY 58 58 100 W16 29.72R  
 

 
INZ028>050-282300-  
CENTRAL INDIANA  
 
CITY SKY/WX TMP DP RH WIND PRES REMARKS
 
LAFAYETTE LGT RAIN 61 55 81 W12G18 29.74S  
KOKOMO* LGT RAIN 58 57 97 W14 29.74R  
MARION* CLOUDY 59 55 87 W16 29.74S  
MUNCIE* CLOUDY 63 55 75 SW9G20 29.73S  
PORTLAND* PTSUNNY 61 52 72 W13 29.72S  
INDIANAPOLIS CLOUDY 59 54 83 SW17 29.76S  
 

 
MIZ043>046-050>051-056>058-064>065-071>073-077>080-282300-  
SOUTHWEST LOWER MICHIGAN  
 
CITY SKY/WX TMP DP RH WIND PRES REMARKS
 
BATTLE CREEK CLOUDY 53 49 86 SW16G29 29.66S  
BENTON HARBOR CLOUDY 46 44 93 W16 29.70F FOG  
COLDWATER* CLOUDY 57 50 77 SW10G18 29.67R  
HILLSDALE* CLOUDY 57 51 81 S9 29.66F  
HOLLAND CLOUDY 44 41 89 SW17 29.66F  
GRAND RAPIDS DRZL/FOG 46 46 100 W17G30 29.66R VSB 1  
KALAMAZOO CLOUDY 54 49 83 SW15G24 29.68R  
STURGIS* DRIZZLE 56 52 86 W9 29.67S  
THREE RIVERS* CLOUDY 54 52 94 W9G17 29.69R FOG  
 

 
OHZ001>008-015>018-024>025-282300-  
NORTHWEST OHIO  
 
CITY SKY/WX TMP DP RH WIND PRES REMARKS
 
WAUSEON* CLOUDY 59 59 100 SW10 29.68S  
DEFIANCE CLOUDY 61 53 75 SW10 29.69S  
FINDLAY CLOUDY 61 54 77 S13 29.69F  
OTTAWA* CLOUDY 61 52 72 SW10 29.71F  
TOLEDO EXPRESS CLOUDY 60 51 72 S9 29.68F  
VAN WERT* PTSUNNY 61 54 77 SW12G17 29.70F  
LIMA PTSUNNY 60 54 80 SW14 29.70F  
 

 
AND FOR LAKE MICHIGAN COASTAL AND OPEN LAKE BUOY OBSERVATIONS  
 
STATION/POSITION TEMP WIND PRES VSBY WAVE
 
AIR SEA DIR/SP/G HT/PER  
(F) (DEG/KT/KT) (MB) (MI) (FT/S)  
CALUMET HARBOR 230/ 10/ 21 1006.2  
MICHIGAN CITY 41 230/ 15/ 16 N/A  
BURNS HARBOR 47 240/ 8/ 10 1007.5R  
SAINT JOSEPH 40 210/ 10/ 13 1006.4  
 

 

 
 
 
CLICK HERE TO GO TO PREVIOUS BULLETINS.

The Nexlab IN Page
The Nexlab OH Page
The Nexlab MI Page Main Text Page